Location: Castillon
(43.0896°N, 0.2156°E)
Time: 16:05:09
(UTC+00:00)

Cosmos 405 - Pass Details

Date: 16 June 2021
Orbit: 447 x 459 km, 81.3° (Epoch: 04 August)

Event Time Altitude Azimuth Distance (km) Brightness Sun altitude
Rises 22:30:12 0° 343° (NNW) 2,461 8.2 -20.4°
Reaches altitude 10° 22:32:20 10° 337° (NNW) 1,583 6.9 -20.5°
Maximum altitude 22:35:38 43° 265° (W) 639 3.7 -20.8°
Enters shadow 22:35:52 42° 251° (WSW) 648 3.6 -20.8°
